KQA606 HKJK-HKMO

Flight info

Callsign KQA606
Flight time 0h 39m
Altitude 33000
Route APNOM2E UVOVA UQ135 NEREV NEREV3A
Aircraft B788/H-SDE1E2E3FGHIJ2J3J4J5M1RWXYZ/LB1D1

Departure

Time 2026-05-04 16:26
Airport Jomo Kenyatta International Airport (HKJK)

Arrival

Time 2026-05-04 17:06
Airport Moi International Airport (HKMO)
Time Latitude Longitude Altitude Speed Heading
2026-05-04 16:14 -1.33364 36.92394 5335 ft 0 kts 19°
2026-05-04 16:19 -1.33381 36.92390 5334 ft 4 kts
2026-05-04 16:20 -1.33434 36.92431 5342 ft 4 kts 280°
2026-05-04 16:20 -1.33429 36.92462 5336 ft 0 kts 243°
2026-05-04 16:23 -1.33470 36.92339 5331 ft 15 kts 240°
2026-05-04 16:24 -1.33260 36.92008 5335 ft 23 kts 323°
2026-05-04 16:25 -1.32981 36.91811 5346 ft 25 kts 325°
2026-05-04 16:26 -1.32239 36.92349 5317 ft 130 kts 53°
2026-05-04 16:26 -1.29924 36.95858 7125 ft 229 kts 80°
2026-05-04 16:27 -1.29508 36.99341 8558 ft 278 kts 86°
2026-05-04 16:28 -1.28890 37.05375 11138 ft 319 kts 84°
2026-05-04 16:28 -1.28180 37.12661 11207 ft 363 kts 90°
2026-05-04 16:29 -1.33513 37.20921 13960 ft 371 kts 135°
2026-05-04 16:30 -1.39142 37.26444 16638 ft 385 kts 135°
2026-05-04 16:31 -1.43006 37.30258 18303 ft 396 kts 135°
2026-05-04 16:31 -1.48987 37.36166 20404 ft 410 kts 135°
2026-05-04 16:32 -1.55172 37.42272 22361 ft 423 kts 135°
2026-05-04 16:33 -1.59375 37.46423 23565 ft 432 kts 135°
2026-05-04 16:33 -1.63689 37.50683 24588 ft 439 kts 135°
2026-05-04 16:34 -1.68067 37.55008 25583 ft 445 kts 135°
2026-05-04 16:34 -1.70279 37.57193 26046 ft 449 kts 135°
2026-05-04 16:35 -1.76948 37.63781 27919 ft 447 kts 134°
2026-05-04 16:35 -1.83529 37.70344 29904 ft 444 kts 134°
2026-05-04 16:36 -1.85712 37.72519 30473 ft 442 kts 134°
2026-05-04 16:36 -1.90051 37.76841 31590 ft 439 kts 134°
2026-05-04 16:37 -1.94358 37.81138 32677 ft 435 kts 134°
2026-05-04 16:37 -1.96507 37.83281 33059 ft 439 kts 134°
2026-05-04 16:38 -2.05169 37.91920 33038 ft 435 kts 134°
2026-05-04 16:39 -2.15874 38.02601 33026 ft 435 kts 134°
2026-05-04 16:40 -2.24442 38.11150 33012 ft 435 kts 134°
2026-05-04 16:41 -2.35103 38.21790 32999 ft 434 kts 134°
2026-05-04 16:43 -2.45779 38.32446 32986 ft 434 kts 134°
2026-05-04 16:43 -2.52191 38.38849 32989 ft 434 kts 134°
2026-05-04 16:45 -2.65001 38.51642 32976 ft 434 kts 134°
2026-05-04 16:46 -2.75663 38.62291 32966 ft 433 kts 133°
2026-05-04 16:47 -2.84183 38.70805 32964 ft 433 kts 133°
2026-05-04 16:48 -2.92704 38.79321 32958 ft 432 kts 133°
2026-05-04 16:49 -2.96940 38.83554 32416 ft 430 kts 133°
2026-05-04 16:49 -3.01187 38.87801 31262 ft 433 kts 133°
2026-05-04 16:50 -3.05437 38.92050 30120 ft 436 kts 133°
2026-05-04 16:50 -3.09676 38.96286 29706 ft 418 kts 133°
2026-05-04 16:51 -3.13661 39.00272 29625 ft 394 kts 133°
2026-05-04 16:51 -3.15577 39.02189 28864 ft 385 kts 133°
2026-05-04 16:51 -3.19317 39.05930 27372 ft 377 kts 133°
2026-05-04 16:52 -3.23002 39.09616 25976 ft 372 kts 134°
2026-05-04 16:52 -3.24836 39.11427 25306 ft 368 kts 137°
2026-05-04 16:53 -3.28506 39.14945 24017 ft 363 kts 134°
2026-05-04 16:53 -3.33927 39.20133 21890 ft 353 kts 136°
2026-05-04 16:54 -3.35688 39.21826 21189 ft 348 kts 135°
2026-05-04 16:55 -3.42510 39.28368 18522 ft 332 kts 136°
2026-05-04 16:55 -3.45806 39.31528 17150 ft 322 kts 136°
2026-05-04 16:56 -3.48783 39.34380 16774 ft 282 kts 136°
2026-05-04 16:56 -3.52938 39.38364 15292 ft 273 kts 136°
2026-05-04 16:57 -3.54306 39.39674 14818 ft 271 kts 136°
2026-05-04 16:57 -3.57011 39.42268 13898 ft 267 kts 136°
2026-05-04 16:58 -3.60997 39.46088 12411 ft 261 kts 136°
2026-05-04 16:58 -3.62300 39.47340 11921 ft 258 kts 136°
2026-05-04 16:59 -3.64901 39.49833 10984 ft 263 kts 136°
2026-05-04 17:00 -3.70525 39.55226 8480 ft 293 kts 136°
2026-05-04 17:00 -3.75013 39.59532 6625 ft 302 kts 137°
2026-05-04 17:01 -3.78148 39.62349 5358 ft 303 kts 150°
2026-05-04 17:01 -3.81986 39.64058 4099 ft 301 kts 156°
2026-05-04 17:02 -3.85809 39.65695 3019 ft 294 kts 156°
2026-05-04 17:02 -3.89298 39.66626 2792 ft 220 kts 180°
2026-05-04 17:03 -3.90685 39.66399 2785 ft 203 kts 192°
2026-05-04 17:03 -3.91991 39.65847 2696 ft 195 kts 202°
2026-05-04 17:03 -3.94338 39.64516 1383 ft 200 kts 207°
2026-05-04 17:04 -3.96654 39.63195 1029 ft 191 kts 206°
2026-05-04 17:04 -3.98805 39.62044 758 ft 150 kts 208°
2026-05-04 17:05 -4.00426 39.61145 379 ft 124 kts 208°
2026-05-04 17:05 -4.01894 39.60320 214 ft 87 kts 209°
2026-05-04 17:06 -4.02601 39.59924 219 ft 48 kts 208°
2026-05-04 17:06 -4.02884 39.59772 222 ft 44 kts 208°
2026-05-04 17:07 -4.03309 39.59560 216 ft 18 kts 143°
2026-05-04 17:07 -4.03330 39.59605 214 ft 9 kts 94°
2026-05-04 17:07 -4.03331 39.59705 211 ft 14 kts 88°
2026-05-04 17:07 -4.03329 39.59816 217 ft 18 kts 89°
2026-05-04 17:08 -4.03331 39.59956 211 ft 21 kts 91°
2026-05-04 17:08 -4.03234 39.60094 216 ft 3 kts 78°
2026-05-04 17:08 -4.03244 39.60130 217 ft 4 kts 114°
2026-05-04 17:09 -4.03256 39.60154 213 ft 3 kts 117°
2026-05-04 17:09 -4.03262 39.60165 220 ft 2 kts 118°
2026-05-04 17:09 -4.03263 39.60166 220 ft 0 kts 118°
2026-05-04 17:10 -4.03266 39.60172 220 ft 2 kts 120°
2026-05-04 17:11 -3.98210 39.62395 819 ft 167 kts 211°